Preview of NWS' New Version of Forecast
This preview is not operational and should not be used for support decisions.

Regional Weather Roundup (RWR)

Issued by National Weather Service (NWS)

                            
000
ASUS43 KTOP 191508
RWRKS 

WEATHER ROUNDUP FOR KANSAS
NATIONAL WEATHER SERVICE GOODLAND KS
900 AM CST TUE FEB 19 2019

NOTE:  "FAIR" INDICATES FEW OR NO CLOUDS BELOW 12,000 FEET WITH NO
SIGNIFICANT WEATHER AND/OR OBSTRUCTIONS TO VISIBILITY.

KSZ001>006-013>018-027>032-041>047-191600-
NORTHWEST KANSAS
  
CITY           SKY/WX    TMP DP  RH WIND       PRES   REMARKS
GOODLAND       LGT SNOW  11  10  96 SE12G24   30.11S FOG     WCI  -3  
HAYS           CLOUDY    16  14  92 E10       30.31F FOG     WCI   4  
HILL CITY      CLOUDY    15  13  91 E12       30.29F FOG     WCI   2  
RUSSELL        CLOUDY    15  15 100 NE7       30.32S FOG              
$$

KSZ061>065-074>080-084>089-191600-
SOUTHWEST KANSAS
  
CITY           SKY/WX    TMP DP  RH WIND       PRES   REMARKS
DODGE CITY     CLOUDY    19  15  84 E8        30.20F FOG              
ELKHART        CLOUDY    19  17  95 SE10      30.10F WCI   7          
GARDEN CITY    FOG       15  14  95 E12       30.17F VSB 1/2 WCI   2  
GREAT BEND     CLOUDY    19  16  88 NE9       30.30F FOG              
LIBERAL        CLOUDY    18  16  92 E10       30.17F WCI   6          
PRATT          CLOUDY    22  19  87 NE7       30.27F                  
$$

KSZ066>073-081>083-090>101-191600-
SOUTHEAST KANSAS
  
CITY           SKY/WX    TMP DP  RH WIND       PRES   REMARKS
CHANUTE        CLOUDY    28  20  71 E12       30.37F WCI  18          
COFFEYVILLE    PTSUNNY   29  22  75 NE10      30.36F WCI  20          
HUTCHINSON     CLOUDY    23  19  85 E10       30.30F WCI  12          
MEDICINE LODGE   N/A     25  18  74 E12       30.26F WCI  14          
NEWTON         CLOUDY    23  19  85 E16G24    30.30F WCI  10          
PARSONS        PTSUNNY   28  21  75 VRB7      30.36F                  
WICHITA INTL   CLOUDY    27  20  75 E14       30.30F WCI  16          
WICHITA JABRA  CLOUDY    25  18  74 E14G21    30.30F WCI  13          
WICHITA MCCONL CLOUDY    25  18  74 E15       30.29F WCI  13          
WINFIELD       CLOUDY    26  19  74 E13       30.32F WCI  15          
$$

KSZ007>012-019>026-033>040-048>060-102>105-191600-
NORTHEAST KANSAS
  
CITY           SKY/WX    TMP DP  RH WIND       PRES   REMARKS
CONCORDIA      CLOUDY    15  11  83 E7        30.37F                  
EMPORIA        CLOUDY    24  19  81 E13       30.38F WCI  12          
LAWRENCE       MOSUNNY   22  15  75 E12       30.47F WCI  10          
MANHATTAN      CLOUDY    20  15  81 E10       30.41F WCI   9          
MARYSVILLE     CLOUDY    18  12  79 E7        30.43F                  
OLATHE IND     CLOUDY    23  17  78 E10       30.45F WCI  12          
OLATHE EXE     CLOUDY    21  17  84 E10       30.45F WCI  10          
SALINA         CLOUDY    20  16  84 E10       30.36F WCI   9          
TOPEKA BILLARD CLOUDY    22  15  75 E9        30.46F                  
TOPEKA FORBES  CLOUDY    22  16  78 E12       30.42F WCI  10          
$$